Regional Weather Roundup
Issued by NWS Jackson, KY

Home | Current Version | Previous Version | Text Only | Print | Product List | Glossary Off
Versions: 1 2 3 4 5 6 7 8 9 10 11 12 13 14 15 16 17 18 19 20 21 22 23 24 25 26 27 28

000
ASUS43 KJKL 281210
RWRJKL

EAST KENTUCKY HOURLY WEATHER ROUNDUP
NATIONAL WEATHER SERVICE JACKSON KY
800 AM EDT THU APR 28 2016

NOTE: "FAIR" INDICATES FEW OR NO CLOUDS BELOW 12,000 FEET WITH
NO SIGNIFICANT WEATHER AND/OR OBSTRUCTIONS TO VISIBILITY.

* THESE REPORTS ARE NOT UNDER NWS QUALITY CONTROL AND MAY NOT
  REPORT WEATHER SUCH AS PRECIPITATION AND FOG.

KYZ079-080-083-085-087-088-110-112-115-119-120-281300
...EASTERN KENTUCKY...

CITY           SKY/WX    TMP DP  RH WIND       PRES   REMARKS
JACKSON        LGT RAIN  59  58  96 CALM      29.89S VSB 1/4
6HR MIN TEMP:  59; 6HR MAX TEMP:  60; 6HR PCP:  0.41;

LONDON         CLOUDY    62  59  90 S3        29.88R
6HR MIN TEMP:  60; 6HR MAX TEMP:  62; 6HR PCP:  0.67;

SOMERSET*      LGT RAIN  61  61 100 CALM      29.89R
MONTICELLO*    CLOUDY    65  63  93 W13       29.89R
6HR MIN TEMP:  61; 6HR MAX TEMP:  65; 6HR PCP:  0.28;

WILLIAMSBURG*  CLOUDY    59  59 100 CALM      29.89R
MIDDLESBORO*   CLOUDY    62  62 100 CALM      29.92R
6HR MIN TEMP:  60; 6HR MAX TEMP:  62; 6HR PCP:  0.11;

HARLAN APT*    CLOUDY    61  59  94 CALM      29.91S
HAZARD APT*    CLOUDY    61  61 100 CALM      29.89R
BLACK MTN*       N/A     55  55 100 SW7         N/A
PIKE CO APT*   HVY RAIN  59  59 100 SE6       29.89S
BIG SANDY APT* CLOUDY    60  60  98 NW3       29.90R
6HR MIN TEMP:  59; 6HR MAX TEMP:  62;

MOREHEAD APT*  FOG       59  59 100 CALM      29.87R VSB<1/4
$$

KYZ035-036-041-042-044-050-067-078-099-281300
...CENTRAL KENTUCKY...

CITY           SKY/WX    TMP DP  RH WIND       PRES   REMARKS
MT STERLING*   CLOUDY    61  61 100 SW3       29.86R
FLEMING/MASON* CLOUDY    59  58  98 S6        29.85S
DANVILLE*      CLOUDY    59  59 100 SW3       29.87R
RICHMOND*      CLOUDY    57  57 100 S5        29.85R
LEXINGTON      MOSUNNY   60  58  92 S5        29.84R
6HR MIN TEMP:  59; 6HR MAX TEMP:  61; 6HR PCP:  0.07;

FRANKFORT      MOSUNNY   62  58  86 S7        29.82R
6HR MIN TEMP:  60; 6HR MAX TEMP:  62;

LOUISVILLE     LGT RAIN  63  60  90 S7        29.81R
6HR MIN TEMP:  62; 6HR MAX TEMP:  63; 6HR PCP: TRACE;

LEBANON*       PTSUNNY   59  59 100 SE10      29.85R
BOWLING GREEN  PTSUNNY   67  66  97 S5        29.84R
6HR MIN TEMP:  63; 6HR MAX TEMP:  67; 6HR PCP:  0.02;

$$

KYZ091>093-OHZ055-061-077-WVZ005-015-034-035-042-281300
...SOUTHERN OHIO/WEST VIRGINIA...

CITY           SKY/WX    TMP DP  RH WIND       PRES   REMARKS
COVINGTON      CLOUDY    61  60  97 SE5       29.81R FOG
COLUMBUS       CLOUDY    48  41  76 E7        29.85R
DAYTON         CLOUDY    50  45  83 NE6       29.86R
WILMINGTON     FOG       54  54 100 E6        29.83S VSB 1/2
HUNTINGTON     LGT RAIN  61  59  93 VRB5      29.83F
CHARLESTON     PTSUNNY   63  59  87 SW5       29.87R
PINEVILLE*     PTSUNNY   59  56  91 MISG      29.96R FOG
BECKLEY          N/A     59  55  87 SW10      29.92R
$$

VAZ002-007-008-TNZ017-027-036-066-071-281300
...SOUTHWEST VIRGINIA/EAST TENNESSEE...

CITY           SKY/WX    TMP DP  RH WIND       PRES   REMARKS
WISE*            N/A     59  59 100 CALM      29.96R
BRISTOL        PTSUNNY   62  60  93 CALM      29.94R
MORRISTOWN*    CLOUDY    63  63 100 CALM      29.92R
SEVIERVILLE*   CLOUDY    63  61  94 CALM      29.91R
KNOXVILLE      PTSUNNY   65  63  93 CALM      29.90R FOG
OAK RIDGE      PTSUNNY   65  63  93 CALM      29.92R
CROSSVILLE     CLOUDY    66  61  84 SW3       29.93R
NASHVILLE      PTSUNNY   67  63  87 S3        29.87R
$$

...KEY TO REMARKS...
VSB - VISIBILITY IN MILES
WCI - WIND CHILL INDEX
HX  - HEAT INDEX

$$




USA.gov is the U.S. government's official web portal to all federal, state and local government web resources and services.